K0FJ-1 Weather Reports


Display with metric or nautical units.
time (UTC)temp
F
wind
direction
speed
MPH
gust
MPH
rain 1hr
in
rain 24hr
in
rain mn
in
humidity
%
barometer
mb
20260906060003 77 165 1.0 4.0 0.00 0.00 0.00 65 1016.4
20260906055503 77 152 1.0 5.0 0.00 0.00 0.00 65 1016.5
20260906055003 77 162 0.0 5.0 0.00 0.00 0.00 66 1016.6
20260906054503 77 175 1.0 6.0 0.00 0.00 0.00 66 1016.5
20260906054003 77 169 2.0 6.0 0.00 0.00 0.00 66 1016.3
20260906053503 77 166 2.0 5.0 0.00 0.00 0.00 66 1016.2
20260906053003 77 167 1.0 5.0 0.00 0.00 0.00 66 1016.2
20260906052503 77 151 1.0 4.0 0.00 0.00 0.00 65 1016.1
20260906052003 77 164 1.0 5.0 0.00 0.00 0.00 65 1016.1
20260906051503 78 171 1.0 5.0 0.00 0.00 0.00 65 1016.0
20260906051003 78 164 1.0 7.0 0.00 0.00 0.00 65 1016.0
20260906050503 78 165 1.0 7.0 0.00 0.00 0.00 64 1015.9
20260906050003 78 137 0.0 2.0 0.00 0.00 0.00 64 1016.0
20260906045503 78 126 0.0 2.0 0.00 0.00 0.00 63 1016.2
20260906045003 78 144 0.0 5.0 0.00 0.00 0.00 63 1016.1
20260906044503 79 145 0.0 5.0 0.00 0.00 0.00 62 1016.1
20260906044003 79 144 0.0 1.0 0.00 0.00 0.00 62 1016.0
20260906043503 79 149 0.0 2.0 0.00 0.00 0.00 61 1016.1
20260906043003 79 161 0.0 2.0 0.00 0.00 0.00 61 1016.2
20260906042503 80 152 0.0 5.0 0.00 0.00 0.00 61 1016.2
20260906042003 80 154 1.0 5.0 0.00 0.00 0.00 61 1016.1
20260906041503 80 161 1.0 7.0 0.00 0.00 0.00 60 1016.0
20260906041003 80 168 1.0 7.0 0.00 0.00 0.00 60 1015.9
20260906040503 80 175 1.0 7.0 0.00 0.00 0.00 60 1015.9
20260906040003 80 172 1.0 9.0 0.00 0.00 0.00 60 1016.0
20260906035503 80 168 2.0 9.0 0.00 0.00 0.00 60 1016.0
20260906035003 79 170 2.0 6.0 0.00 0.00 0.00 60 1015.9
20260906034503 79 171 2.0 7.0 0.00 0.00 0.00 60 1015.8
20260906034003 79 167 1.0 7.0 0.00 0.00 0.00 60 1015.8
20260906033503 79 158 0.0 4.0 0.00 0.00 0.00 60 1015.9
20260906033003 80 156 0.0 4.0 0.00 0.00 0.00 60 1016.0
20260906032503 80 150 0.0 4.0 0.00 0.00 0.00 60 1016.0
20260906032003 80 139 1.0 2.0 0.00 0.00 0.00 60 1016.0
20260906031503 80 148 1.0 6.0 0.00 0.00 0.00 60 1016.0
20260906031003 80 152 0.0 6.0 0.00 0.00 0.00 59 1016.0
20260906030503 80 149 0.0 3.0 0.00 0.00 0.00 59 1015.9
20260906030003 81 150 0.0 4.0 0.00 0.00 0.00 59 1016.0
20260906025503 81 159 1.0 5.0 0.00 0.00 0.00 59 1015.9
20260906025003 81 156 1.0 5.0 0.00 0.00 0.00 59 1015.7
20260906024503 81 126 0.0 5.0 0.00 0.00 0.00 59 1015.7
20260906024003 82 155 1.0 5.0 0.00 0.00 0.00 58 1015.6
20260906023503 82 158 1.0 5.0 0.00 0.00 0.00 58 1015.6
20260906023003 82 154 1.0 7.0 0.00 0.00 0.00 58 1015.6
20260906022503 82 151 2.0 7.0 0.00 0.00 0.00 58 1015.6
20260906022003 83 158 3.0 9.0 0.00 0.00 0.00 57 1015.6
20260906021503 83 163 2.0 9.0 0.00 0.00 0.00 57 1015.6
20260906021003 83 158 1.0 7.0 0.00 0.00 0.00 56 1015.5
20260906020503 84 138 0.0 4.0 0.00 0.00 0.00 55 1015.5
20260906020003 84 137 0.0 3.0 0.00 0.00 0.00 55 1015.4
20260906015503 84 138 1.0 7.0 0.00 0.00 0.00 55 1015.3
20260906015003 84 138 1.0 7.0 0.00 0.00 0.00 54 1015.4
20260906014503 84 150 1.0 7.0 0.00 0.00 0.00 54 1015.3
20260906014003 84 149 1.0 7.0 0.00 0.00 0.00 54 1015.3
20260906013503 85 145 1.0 6.0 0.00 0.00 0.00 53 1015.3
20260906013003 85 150 0.0 2.0 0.00 0.00 0.00 53 1015.3
20260906012503 86 149 0.0 2.0 0.00 0.00 0.00 52 1015.4
20260906012003 86 125 0.0 2.0 0.00 0.00 0.00 52 1015.1
20260906011503 86 135 1.0 5.0 0.00 0.00 0.00 51 1015.0
20260906011003 87 139 1.0 5.0 0.00 0.00 0.00 50 1014.9
20260906010503 87 143 2.0 6.0 0.00 0.00 0.00 50 1014.7
20260906010004 87 144 1.0 6.0 0.00 0.00 0.00 49 1014.6
20260906005503 88 137 1.0 7.0 0.00 0.00 0.00 48 1014.6
20260906005003 88 138 2.0 7.0 0.00 0.00 0.00 48 1014.5
20260906004503 88 144 3.0 7.0 0.00 0.00 0.00 47 1014.4
20260906004003 89 150 3.0 14.0 0.00 0.00 0.00 47 1014.4
20260906003503 90 148 4.0 16.0 0.00 0.00 0.00 46 1014.5
20260906003003 91 149 5.0 19.0 0.00 0.00 0.00 44 1014.4
20260906002503 92 154 4.0 19.0 0.00 0.00 0.00 42 1014.3
20260906002003 93 161 4.0 11.0 0.00 0.00 0.00 38 1014.1
20260906001503 93 163 4.0 14.0 0.00 0.00 0.00 37 1014.1
20260906001003 94 157 3.0 14.0 0.00 0.00 0.00 37 1014.2
20260906000503 94 157 3.0 14.0 0.00 0.00 0.00 37 1014.2
20260906000003 95 166 4.0 13.0 0.00 0.00 0.00 36 1014.1
20260905235503 95 164 5.0 13.0 0.00 0.00 0.00 36 1014.1
20260905235003 95 153 4.0 13.0 0.00 0.00 0.00 36 1014.2
20260905234503 95 154 5.0 14.0 0.00 0.00 0.00 36 1014.2
20260905234003 95 160 5.0 14.0 0.00 0.00 0.00 35 1014.0
20260905233503 95 161 5.0 15.0 0.00 0.00 0.00 35 1014.1
20260905233003 95 154 4.0 15.0 0.00 0.00 0.00 35 1014.1
20260905232503 95 159 5.0 14.0 0.00 0.00 0.00 36 1014.2
20260905232003 95 165 6.0 12.0 0.00 0.00 0.00 36 1014.1
20260905231503 95 163 6.0 13.0 0.00 0.00 0.00 36 1014.0
20260905231003 95 159 5.0 14.0 0.00 0.00 0.00 37 1013.9
20260905230503 95 155 5.0 18.0 0.00 0.00 0.00 37 1013.9
20260905230003 95 158 4.0 18.0 0.00 0.00 0.00 37 1013.8
20260905225503 96 156 3.0 14.0 0.00 0.00 0.00 37 1013.7
20260905225003 96 150 2.0 11.0 0.00 0.00 0.00 37 1013.7
20260905224503 96 158 3.0 9.0 0.00 0.00 0.00 37 1013.8
20260905224003 96 140 2.0 9.0 0.00 0.00 0.00 36 1013.8
20260905223503 97 112 2.0 8.0 0.00 0.00 0.00 36 1013.8
20260905223003 97 121 2.0 5.0 0.00 0.00 0.00 37 1013.7
20260905222503 97 123 2.0 8.0 0.00 0.00 0.00 37 1013.8
20260905222003 97 121 2.0 8.0 0.00 0.00 0.00 36 1013.7
20260905221503 98 130 2.0 9.0 0.00 0.00 0.00 36 1013.7
20260905221003 98 140 2.0 9.0 0.00 0.00 0.00 36 1013.9
20260905220503 98 134 2.0 14.0 0.00 0.00 0.00 36 1013.9
20260905220003 97 148 4.0 15.0 0.00 0.00 0.00 35 1014.0
20260905215503 97 155 4.0 15.0 0.00 0.00 0.00 35 1014.0
20260905215003 98 157 3.0 12.0 0.00 0.00 0.00 35 1014.0
20260905214503 97 158 3.0 12.0 0.00 0.00 0.00 33 1014.1
20260905214003 97 156 4.0 17.0 0.00 0.00 0.00 34 1014.2
20260905213503 97 160 5.0 17.0 0.00 0.00 0.00 36 1014.2
20260905213003 97 153 3.0 10.0 0.00 0.00 0.00 35 1014.2
20260905212503 97 142 2.0 8.0 0.00 0.00 0.00 35 1014.3
20260905212003 97 147 3.0 12.0 0.00 0.00 0.00 33 1014.5
20260905211503 97 149 3.0 14.0 0.00 0.00 0.00 34 1014.6
20260905211003 97 149 4.0 18.0 0.00 0.00 0.00 34 1014.6
20260905210503 97 155 5.0 18.0 0.00 0.00 0.00 34 1014.6
20260905210003 97 153 3.0 12.0 0.00 0.00 0.00 35 1014.7
20260905205503 97 144 3.0 9.0 0.00 0.00 0.00 35 1014.8
20260905205003 97 150 4.0 13.0 0.00 0.00 0.00 33 1014.9
20260905204503 97 152 5.0 13.0 0.00 0.00 0.00 32 1014.9
20260905204003 98 160 5.0 12.0 0.00 0.00 0.00 32 1015.0
20260905203503 97 160 4.0 12.0 0.00 0.00 0.00 33 1015.1
20260905203003 97 152 3.0 14.0 0.00 0.00 0.00 32 1015.2
20260905202503 97 140 2.0 14.0 0.00 0.00 0.00 33 1015.1
20260905202003 97 103 1.0 4.0 0.00 0.00 0.00 36 1015.2
20260905201503 97 111 2.0 6.0 0.00 0.00 0.00 35 1015.3
20260905201003 97 139 3.0 10.0 0.00 0.00 0.00 35 1015.3
20260905200503 97 145 3.0 10.0 0.00 0.00 0.00 35 1015.5
20260905200003 96 136 3.0 14.0 0.00 0.00 0.00 37 1015.5
20260905195503 96 143 3.0 14.0 0.00 0.00 0.00 37 1015.5
20260905195003 95 151 3.0 13.0 0.00 0.00 0.00 38 1015.5
20260905194503 94 156 4.0 13.0 0.00 0.00 0.00 40 1015.5
20260905194003 94 158 4.0 16.0 0.00 0.00 0.00 40 1015.6
20260905193503 93 155 4.0 16.0 0.00 0.00 0.00 40 1015.7
20260905193003 93 156 4.0 15.0 0.00 0.00 0.00 42 1015.7
20260905192503 93 152 4.0 15.0 0.00 0.00 0.00 40 1015.7
20260905192003 93 133 2.0 9.0 0.00 0.00 0.00 40 1015.9
20260905191503 93 138 2.0 10.0 0.00 0.00 0.00 41 1015.9
20260905191003 93 144 3.0 14.0 0.00 0.00 0.00 42 1015.8
20260905190503 92 152 3.0 14.0 0.00 0.00 0.00 42 1015.9
20260905190003 93 150 2.0 10.0 0.00 0.00 0.00 42 1015.9
20260905185503 93 140 2.0 10.0 0.00 0.00 0.00 41 1016.0
20260905185003 94 142 2.0 11.0 0.00 0.00 0.00 42 1015.9
20260905184503 93 146 3.0 13.0 0.00 0.00 0.00 42 1016.0
20260905184003 93 149 4.0 13.0 0.00 0.00 0.00 42 1016.0
20260905183503 92 146 3.0 11.0 0.00 0.00 0.00 42 1015.9
20260905183003 92 146 2.0 9.0 0.00 0.00 0.00 43 1015.9
20260905182503 92 148 3.0 19.0 0.00 0.00 0.00 43 1016.0
20260905182003 91 152 4.0 19.0 0.00 0.00 0.00 43 1016.0
20260905181503 91 157 4.0 14.0 0.00 0.00 0.00 45 1016.0
20260905181003 91 151 3.0 14.0 0.00 0.00 0.00 43 1016.1
20260905180503 91 144 3.0 8.0 0.00 0.00 0.00 44 1016.0
20260905180003 91 141 3.0 10.0 0.00 0.00 0.00 45 1016.2
20260905175503 91 149 3.0 10.0 0.00 0.00 0.00 43 1016.2
20260905175003 92 153 4.0 11.0 0.00 0.00 0.00 44 1016.3
20260905174503 92 152 4.0 11.0 0.00 0.00 0.00 42 1016.2
20260905174003 92 145 3.0 9.0 0.00 0.00 0.00 42 1016.4
20260905173503 92 147 3.0 9.0 0.00 0.00 0.00 43 1016.4
20260905173003 91 150 2.0 9.0 0.00 0.00 0.00 44 1016.4
20260905172503 91 137 2.0 7.0 0.00 0.00 0.00 44 1016.5
20260905172003 90 150 3.0 9.0 0.00 0.00 0.00 47 1016.5
20260905171503 90 161 4.0 10.0 0.00 0.00 0.00 46 1016.6
20260905171003 89 165 4.0 10.0 0.00 0.00 0.00 46 1016.7
20260905170503 89 149 2.0 11.0 0.00 0.00 0.00 48 1016.6
20260905170003 88 140 3.0 11.0 0.00 0.00 0.00 48 1016.6
20260905165503 88 148 3.0 12.0 0.00 0.00 0.00 48 1016.6
20260905165003 88 152 3.0 12.0 0.00 0.00 0.00 49 1016.6
20260905164503 88 155 3.0 8.0 0.00 0.00 0.00 49 1016.6
20260905164003 88 149 2.0 8.0 0.00 0.00 0.00 48 1016.6
20260905163503 88 130 2.0 5.0 0.00 0.00 0.00 49 1016.6
20260905163003 87 143 1.0 7.0 0.00 0.00 0.00 51 1016.6
20260905162503 87 164 2.0 10.0 0.00 0.00 0.00 51 1016.6
20260905162003 86 162 3.0 10.0 0.00 0.00 0.00 51 1016.5
20260905161503 86 161 2.0 9.0 0.00 0.00 0.00 52 1016.5
20260905161003 85 149 2.0 7.0 0.00 0.00 0.00 55 1016.5
20260905160503 84 142 2.0 7.0 0.00 0.00 0.00 55 1016.5
20260905160003 84 162 2.0 9.0 0.00 0.00 0.00 56 1016.5
20260905155503 83 160 2.0 9.0 0.00 0.00 0.00 56 1016.4
20260905155003 83 134 1.0 7.0 0.00 0.00 0.00 58 1016.4
20260905154503 83 162 2.0 9.0 0.00 0.00 0.00 57 1016.4
20260905154003 82 171 4.0 13.0 0.00 0.00 0.00 59 1016.3
20260905153503 82 169 4.0 13.0 0.00 0.00 0.00 58 1016.2
20260905153003 82 170 3.0 9.0 0.00 0.00 0.00 58 1016.2
20260905152503 82 172 3.0 9.0 0.00 0.00 0.00 57 1016.1
20260905152003 82 173 4.0 9.0 0.00 0.00 0.00 57 1016.0
20260905151503 82 172 4.0 9.0 0.00 0.00 0.00 57 1016.0
20260905151003 82 172 3.0 9.0 0.00 0.00 0.00 57 1016.0
20260905150503 81 169 2.0 9.0 0.00 0.00 0.00 58 1016.0
20260905150003 80 177 2.0 8.0 0.00 0.00 0.00 60 1015.9
20260905145503 79 179 2.0 8.0 0.00 0.00 0.00 61 1015.9
20260905145003 78 172 1.0 7.0 0.00 0.00 0.00 64 1015.7
20260905144503 76 150 0.0 3.0 0.00 0.00 0.00 68 1015.8
20260905144003 75 168 0.0 2.0 0.00 0.00 0.00 67 1015.9
20260905143503 74 0 0.0 0.0 0.00 0.00 0.00 71 1015.9
20260905143003 74 0 0.0 0.0 0.00 0.00 0.00 72 1015.9
20260905142503 73 0 0.0 0.0 0.00 0.00 0.00 73 1015.9
20260905142003 72 0 0.0 0.0 0.00 0.00 0.00 75 1015.8
20260905141503 71 0 0.0 0.0 0.00 0.00 0.00 76 1015.7
20260905141003 70 0 0.0 0.0 0.00 0.00 0.00 77 1015.8
20260905140503 70 0 0.0 0.0 0.00 0.00 0.00 77 1015.7
20260905140003 69 0 0.0 0.0 0.00 0.00 0.00 77 1015.7
20260905135503 69 0 0.0 0.0 0.00 0.00 0.00 77 1015.7
20260905135003 68 0 0.0 0.0 0.00 0.00 0.00 78 1015.7
20260905134503 68 0 0.0 0.0 0.00 0.00 0.00 79 1015.6
20260905134003 68 0 0.0 0.0 0.00 0.00 0.00 80 1015.5
20260905133503 68 0 0.0 0.0 0.00 0.00 0.00 81 1015.5
20260905133003 68 0 0.0 0.0 0.00 0.00 0.00 79 1015.6
20260905132503 67 0 0.0 0.0 0.00 0.00 0.00 80 1015.5
20260905132003 67 0 0.0 0.0 0.00 0.00 0.00 81 1015.4
20260905131503 67 0 0.0 0.0 0.00 0.00 0.00 81 1015.3
20260905131003 67 0 0.0 0.0 0.00 0.00 0.00 80 1015.3
20260905130503 67 0 0.0 0.0 0.00 0.00 0.00 81 1015.2
20260905130003 67 0 0.0 0.0 0.00 0.00 0.00 81 1015.1
20260905125503 67 0 0.0 0.0 0.00 0.00 0.00 80 1015.0
20260905125003 66 0 0.0 0.0 0.00 0.00 0.00 80 1014.9
20260905124503 66 0 0.0 0.0 0.00 0.00 0.00 79 1014.8
20260905124003 67 0 0.0 0.0 0.00 0.00 0.00 79 1014.7
20260905123503 67 0 0.0 0.0 0.00 0.00 0.00 79 1014.7
20260905123003 67 0 0.0 0.0 0.00 0.00 0.00 80 1014.6
20260905122503 67 0 0.0 0.0 0.00 0.00 0.00 79 1014.6
20260905122003 67 0 0.0 0.0 0.00 0.00 0.00 78 1014.5
20260905121503 67 0 0.0 0.0 0.00 0.00 0.00 78 1014.5
20260905121003 67 0 0.0 0.0 0.00 0.00 0.00 78 1014.5
20260905120503 68 0 0.0 0.0 0.00 0.00 0.00 77 1014.5
20260905120003 68 0 0.0 0.0 0.00 0.00 0.00 76 1014.6
20260905115503 68 0 0.0 0.0 0.00 0.00 0.00 76 1014.6
20260905115003 68 0 0.0 0.0 0.00 0.00 0.00 75 1014.6
20260905114503 69 0 0.0 0.0 0.00 0.00 0.00 75 1014.6
20260905114003 69 0 0.0 0.0 0.00 0.00 0.00 74 1014.6
20260905113503 69 0 0.0 0.0 0.00 0.00 0.00 74 1014.6
20260905113003 69 0 0.0 0.0 0.00 0.00 0.00 73 1014.6
20260905112503 70 0 0.0 0.0 0.00 0.00 0.00 72 1014.6
20260905112003 70 0 0.0 0.0 0.00 0.00 0.00 72 1014.7
20260905111503 70 174 1.0 4.0 0.00 0.00 0.00 72 1014.8
20260905111003 70 173 1.0 4.0 0.00 0.00 0.00 71 1014.9
20260905110503 70 182 1.0 7.0 0.00 0.00 0.00 71 1015.0
20260905110003 70 183 2.0 7.0 0.00 0.00 0.00 71 1015.0
20260905105503 70 182 1.0 4.0 0.00 0.00 0.00 71 1015.1
20260905105003 70 181 1.0 4.0 0.00 0.00 0.00 71 1015.0
20260905104503 70 0 0.0 0.0 0.00 0.00 0.00 71 1015.1
20260905104003 70 193 0.0 5.0 0.00 0.00 0.00 71 1015.0
20260905103503 70 193 0.0 5.0 0.00 0.00 0.00 71 1015.2
20260905103003 70 0 0.0 0.0 0.00 0.00 0.00 71 1015.1
20260905102503 70 0 0.0 0.0 0.00 0.00 0.00 70 1015.0
20260905102003 70 0 0.0 0.0 0.00 0.00 0.00 70 1015.0
20260905101503 71 0 0.0 0.0 0.00 0.00 0.00 69 1014.9
20260905101003 71 0 0.0 0.0 0.00 0.00 0.00 69 1014.9
20260905100503 71 0 0.0 0.0 0.00 0.00 0.00 68 1014.9
20260905100003 72 0 0.0 0.0 0.00 0.00 0.00 67 1014.9
20260905095503 72 0 0.0 0.0 0.00 0.00 0.00 66 1014.9
20260905095003 72 0 0.0 0.0 0.00 0.00 0.00 65 1014.9
20260905094503 73 0 0.0 0.0 0.00 0.00 0.00 65 1015.0
20260905094003 73 0 0.0 0.0 0.00 0.00 0.00 64 1014.9
20260905093503 73 200 0.0 2.0 0.00 0.00 0.00 64 1015.0
20260905093003 73 189 1.0 6.0 0.00 0.00 0.00 64 1015.0
20260905092503 73 183 1.0 6.0 0.00 0.00 0.00 64 1015.1
20260905092003 73 182 2.0 6.0 0.00 0.00 0.00 63 1015.2
20260905091503 73 184 3.0 6.0 0.00 0.00 0.00 63 1015.2
20260905091003 73 182 3.0 6.0 0.00 0.00 0.00 63 1015.3
20260905090503 74 177 3.0 6.0 0.00 0.00 0.00 63 1015.4
20260905090003 74 174 2.0 7.0 0.00 0.00 0.00 63 1015.3
20260905085503 74 175 3.0 8.0 0.00 0.00 0.00 62 1015.4
20260905085003 74 177 4.0 8.0 0.00 0.00 0.00 62 1015.5
20260905084503 73 182 3.0 8.0 0.00 0.00 0.00 63 1015.4
20260905084003 73 190 2.0 8.0 0.00 0.00 0.00 63 1015.5
20260905083503 73 206 1.0 4.0 0.00 0.00 0.00 64 1015.3
20260905083003 74 215 1.0 4.0 0.00 0.00 0.00 64 1015.2
20260905082503 74 218 1.0 4.0 0.00 0.00 0.00 63 1015.2
20260905082003 74 218 1.0 3.0 0.00 0.00 0.00 62 1015.2
20260905081503 75 204 0.0 4.0 0.00 0.00 0.00 62 1015.2
20260905081003 75 198 2.0 5.0 0.00 0.00 0.00 61 1015.1
20260905080503 75 191 2.0 5.0 0.00 0.00 0.00 61 1015.1
20260905080003 75 187 2.0 5.0 0.00 0.00 0.00 61 1015.2
20260905075503 75 186 2.0 9.0 0.00 0.00 0.00 61 1015.2
20260905075003 75 184 2.0 9.0 0.00 0.00 0.00 61 1015.2
20260905074503 76 183 3.0 9.0 0.00 0.00 0.00 60 1015.2
20260905074003 76 181 4.0 9.0 0.00 0.00 0.00 60 1015.2
20260905073503 76 180 4.0 9.0 0.00 0.00 0.00 59 1015.2
20260905073003 77 181 4.0 9.0 0.00 0.00 0.00 58 1015.2
20260905072503 77 182 4.0 7.0 0.00 0.00 0.00 58 1015.2
20260905072003 77 180 4.0 9.0 0.00 0.00 0.00 57 1015.2
20260905071503 77 176 4.0 9.0 0.00 0.00 0.00 57 1015.2
20260905071003 77 174 3.0 7.0 0.00 0.00 0.00 56 1015.1
20260905070503 78 176 3.0 8.0 0.00 0.00 0.00 56 1015.1
20260905070003 78 178 3.0 8.0 0.00 0.00 0.00 56 1015.2
20260905065503 78 177 3.0 7.0 0.00 0.00 0.00 55 1015.1
20260905065003 78 171 3.0 7.0 0.00 0.00 0.00 55 1015.1
20260905064503 78 163 2.0 8.0 0.00 0.00 0.00 55 1015.2
20260905064003 78 167 3.0 8.0 0.00 0.00 0.00 54 1015.2
20260905063503 79 170 3.0 9.0 0.00 0.00 0.00 54 1015.3
20260905063003 79 167 3.0 9.0 0.00 0.00 0.00 53 1015.4
20260905062503 79 168 4.0 13.0 0.00 0.00 0.00 53 1015.4
20260905062003 79 172 5.0 13.0 0.00 0.00 0.00 53 1015.5
20260905061503 79 175 4.0 9.0 0.00 0.00 0.00 54 1015.4
20260905061003 79 175 4.0 9.0 0.00 0.00 0.00 55 1015.4
20260905060503 78 177 4.0 7.0 0.00 0.00 0.00 56 1015.4